Skip Page Navigation
NASA JPL Caltech
NASA Logo - Jet Propulsion Laboratory + View the NASA Portal
+ Near-Earth Object (NEO) Program
Search JPL
JPL Home Earth Solar System Stars & Galaxies Technology
JPL Solar System Dynamics
BODIES ORBITS EPHEMERIDES TOOLS PHYSICAL DATA DISCOVERY FAQ SITE MAP
JPL Small-Body Database Browser
Search: [ help ]  
2989 Imago (1976 UF1)
Classification: Main-belt Asteroid          SPK-ID: 2002989
Ephemeris | Orbit Diagram | Orbital Elements | Physical Parameters | Discovery Circumstances | Close-Approach Data ]

[ show orbit diagram ]
Orbital Elements at Epoch 2457000.5 (2014-Dec-09.0) TDB
Reference: JPL 12 (heliocentric ecliptic J2000)
 Element Value Uncertainty (1-sigma)   Units 
e .1733516145568459 4.2184e-08  
a 2.239325275542038 1.1281e-08 AU
q 1.851134623508872 9.2924e-08 AU
i 3.627202675835274 4.9372e-06 deg
node 75.79110644171699 7.8908e-05 deg
peri 247.4330292085002 8.0591e-05 deg
M 183.0500711844196 1.8198e-05 deg
tp 2457602.119759145680
(2016-Aug-01.61975915)
6.4291e-05 JED
period 1223.979657647506
3.35
9.2493e-06
2.532e-08
d
yr
n .2941225352486017 2.2226e-09 deg/d
Q 2.627515927575204 1.3237e-08 AU
  Orbit Determination Parameters
   # obs. used (total)      1380  
   data-arc span      22622 days (61.94 yr)  
   first obs. used      1952-05-01  
   last obs. used      2014-04-08  
   planetary ephem.      DE431  
   SB-pert. ephem.      SB431-BIG16  
   condition code      0  
   fit RMS      .51658  
   data source      ORB  
   producer      Otto Matic  
   solution date      2014-Jun-16 13:24:01  

Additional Information
 Earth MOID = .843205 AU 
 T_jup = 3.613 
[ show covariance matrix ]

Ephemeris | Orbit Diagram | Orbital Elements | Physical Parameters | Discovery Circumstances | Close-Approach Data ]

Physical Parameter Table
Parameter Symbol Value Units Sigma Reference Notes
absolute magnitude H 12.9 mag n/a MPO279545  
diameter diameter 12.5 km n/a DASTCOM value unverified
geometric albedo albedo 0.0595   0.016 EAR-A-5-DDR-ALBEDOS-V1.0:IMPS IMPS quality code 2: from the PDS IMPS singleton file

2989 Imago (1976 UF1)          Discovered 1976-Oct-22 by Wild, P. at Zimmerwald
Reference: DISCOVERY.DBLast Updated: 2003-08-29

[ show close-approach data ]
Alternate Designations
 1976 UF1 = 1952 JL = 1952 KW = 1966 UD1 = 1972 JK = 1982 HA2 
Ephemeris | Orbit Diagram | Orbital Elements | Physical Parameters | Discovery Circumstances | Close-Approach Data ]
ABOUT SSD CREDITS/AWARDS PRIVACY/COPYRIGHT GLOSSARY LINKS
FirstGov 2014-Sep-02 21:19 UT
(server date/time)  
NASA Home Page
Site Manager:   Donald K. Yeomans
Webmaster  Alan B. Chamberlin